Probability
81 100 100 100 100 100 100 100 100 100 100 100 100 100 100 100 100 100 100 100 100 100 100 100 100 100 100 100 100 100 100 100 97 97 100 100 100 100 100 97 97 87 100
90 100 100 100 100 100 100 100 100 100 100 100 100 100 100 100 100 100 100 100 100 100 100 100 100 100 100 100 100 100 100 100 100 100 100 100 100 100 97 97 90 90 97
100 100 100 100 100 100 100 100 100 100 100 100 100 100 100 100 100 100 100 100 100 100 100 100 100 100 100 100 100 100 100 100 100 100 100 97 100 100 97 97 97 94 90
100 97 100 100 100 100 100 100 100 100 100 100 100 100 100 100 100 100 100 100 100 100 100 100 100 100 100 100 100 100 100 100 100 97 94 94 97 100 97 97 97 94 90
97 97 100 100 100 100 100 100 100 100 100 100 100 100 100 100 100 100 100 100 100 100 100 100 100 100 100 100 100 100 97 94 94 90 87 90 97 97 97 97 97 94 94
97 97 97 97 97 97 100 100 100 100 100 100 100 100 100 97 97 97 100 100 100 100 100 100 100 100 100 100 100 100 97 97 84 68 77 84 97 97 97 97 97 94 94
97 97 97 97 97 97 100 100 100 100 100 100 100 97 97 97 97 97 100 100 100 100 100 100 100 100 100 100 100 100 97 97 35 55 71 84 94 100 97 97 97 97 97
87 84 90 97 94 94 97 100 100 100 100 100 97 97 97 97 97 100 100 100 100 100 100 100 100 100 97 97 97 100 97 90 77 45 55 81 84 100 94 94 97 97 94
81 84 84 87 87 90 94 94 94 97 97 100 100 100 100 100 100 100 97 100 100 100 100 100 100 97 97 97 94 94 97 87 45 58 48 61 77 100 97 94 97 97 94
65 68 74 77 81 87 87 90 90 94 94 94 94 97 97 94 94 94 94 97 100 100 100 97 97 97 100 100 90 97 94 71 29 39 55 48 77 97 97 100 97 97 94
65 61 68 68 71 81 81 84 84 87 87 87 87 90 90 74 77 84 90 97 97 100 100 100 97 100 97 94 94 94 77 35 26 29 32 52 94 94 94 94 97 97 90
48 55 61 65 68 74 77 71 71 68 71 68 68 68 68 68 68 81 84 90 97 97 97 97 97 94 81 68 81 77 48 29 23 29 29 68 90 100 97 97 94 90 94
42 45 48 52 55 58 61 61 58 55 55 61 61 58 65 61 58 61 58 61 65 65 61 58 65 58 55 55 45 29 29 29 26 23 29 68 90 94 90 94 87 81 84
23 29 26 26 32 39 39 45 48 48 48 48 48 48 45 35 35 32 35 35 39 42 42 42 35 39 45 35 23 16 19 29 19 16 16 65 81 87 90 90 87 81 84
16 23 29 26 26 26 26 29 32 39 42 42 35 39 35 32 26 26 35 26 26 32 32 26 29 29 32 26 26 26 19 19 16 13 10 35 58 71 77 84 77 81 84
19 19 16 19 19 19 19 23 23 26 26 26 26 32 32 23 23 16 13 13 19 23 26 26 26 26 23 23 23 29 19 13 6 3 6 13 45 58 68 74 74 81 77
16 13 10 10 13 16 19 19 19 19 16 16 19 19 19 19 13 13 13 10 13 10 13 13 16 10 13 16 16 16 16 13 10 6 6 6 13 35 48 68 65 65 65
16 10 10 13 6 10 10 16 23 19 13 6 13 13 13 10 3 10 13 13 6 6 6 13 13 10 10 13 13 6 6 6 10 10 10 6 6 6 29 45 58 58 58
10 6 6 6 6 3 6 13 19 16 10 10 6 6 10 10 3 3 6 6 6 0 3 6 10 10 6 6 3 6 3 3 6 6 3 3 3 3 3 16 32 35 42
6 6 6 6 6 3 3 6 10 13 10 6 10 6 3 6 10 6 6 6 6 3 0 0 3 3 3 3 3 3 0 0 3 3 3 3 3 3 0 0 10 23 26
6 6 6 6 3 3 3 6 6 10 6 6 6 6 6 3 3 6 6 6 3 3 3 3 0 0 0 3 3 3 0 0 0 0 3 3 3 3 3 3 3 6 6
3 3 3 3 3 3 6 3 3 3 3 3 3 3 3 6 3 6 6 3 3 0 0 0 0 0 0 0 3 3 3 0 0 0 0 0 3 3 3 0 0 0 0
3 3 3 3 3 3 3 0 3 3 3 3 3 10 6 6 6 6 10 6 6 3 3 0 0 3 0 0 0 3 3 3 0 0 0 0 0 0 0 0 0 0 0
3 3 3 3 3 3 3 0 3 3 3 3 3 3 3 6 6 6 6 6 6 6 0 0 3 3 3 0 0 0 3 3 0 0 0 0 0 0 0 0 0 0 0
6 6 6 6 6 6 6 3 3 3 3 3 0 0 0 0 6 6 6 6 3 3 0 0 0 0 0 0 0 0 0 0 0 0 0 0 0 0 0 0 0 0 0
13 6 3 6 6 6 6 3 3 3 3 3 0 0 0 0 0 0 3 3 3 3 0 0 0 0 0 0 0 0 0 0 0 0 0 0 0 0 0 0 0 0 0
Height
5898 5898 5898 5899 5899 5899 5899 5899 5900 5900 5901 5902 5903 5903 5904 5904 5905 5905 5905 5905 5905 5905 5905 5905 5905 5905 5905 5904 5904 5904 5903 5903 5903 5903 5902 5902 5902 5902 5902 5902 5902 5902 5902
5898 5898 5898 5898 5898 5898 5898 5899 5899 5900 5901 5902 5902 5903 5903 5904 5904 5904 5905 5905 5905 5905 5905 5905 5905 5905 5904 5904 5904 5903 5903 5903 5903 5902 5902 5902 5902 5902 5902 5902 5902 5902 5902
5896 5896 5897 5897 5897 5897 5897 5898 5898 5899 5900 5901 5901 5902 5902 5903 5903 5903 5904 5904 5904 5904 5904 5904 5904 5904 5904 5904 5903 5903 5902 5902 5902 5902 5902 5902 5902 5902 5902 5902 5902 5903 5902
5894 5895 5895 5896 5896 5896 5896 5896 5897 5898 5898 5899 5900 5900 5901 5902 5902 5902 5902 5903 5903 5903 5903 5903 5903 5903 5903 5903 5902 5902 5902 5901 5901 5902 5902 5902 5902 5902 5902 5902 5902 5902 5902
5892 5893 5893 5894 5894 5894 5894 5895 5895 5896 5896 5897 5898 5898 5899 5900 5900 5900 5900 5901 5901 5901 5901 5901 5901 5901 5901 5901 5901 5901 5901 5901 5901 5901 5901 5901 5901 5901 5901 5902 5902 5902 5902
5890 5891 5891 5892 5892 5892 5893 5893 5893 5894 5894 5895 5896 5896 5897 5897 5898 5898 5898 5899 5899 5899 5899 5899 5900 5900 5900 5900 5900 5900 5900 5900 5900 5900 5900 5900 5900 5900 5900 5901 5901 5901 5901
5888 5888 5889 5889 5890 5890 5890 5891 5891 5892 5892 5893 5894 5894 5895 5895 5896 5896 5896 5896 5897 5897 5897 5897 5897 5898 5898 5898 5898 5898 5898 5898 5898 5898 5898 5898 5899 5899 5899 5899 5900 5900 5901
5885 5886 5886 5887 5887 5887 5888 5889 5889 5890 5890 5891 5891 5892 5892 5893 5893 5893 5894 5894 5894 5894 5895 5895 5895 5895 5895 5896 5896 5896 5896 5896 5897 5897 5897 5897 5897 5897 5897 5898 5898 5899 5899
5882 5883 5883 5884 5884 5884 5885 5886 5887 5887 5887 5888 5889 5889 5890 5890 5891 5891 5891 5891 5891 5892 5892 5892 5892 5892 5893 5893 5893 5894 5894 5894 5894 5894 5895 5895 5895 5895 5895 5896 5896 5897 5898
5879 5879 5880 5880 5880 5881 5882 5883 5884 5884 5885 5885 5886 5886 5887 5887 5888 5888 5888 5889 5889 5889 5889 5889 5889 5889 5890 5890 5891 5891 5891 5892 5892 5892 5892 5892 5893 5893 5893 5894 5894 5895 5896
5875 5876 5876 5876 5877 5878 5878 5879 5880 5881 5882 5882 5882 5883 5884 5884 5884 5885 5885 5885 5886 5886 5886 5886 5886 5886 5887 5887 5887 5888 5888 5889 5889 5890 5890 5890 5890 5890 5891 5891 5892 5893 5893
5872 5872 5872 5873 5873 5874 5874 5875 5876 5877 5878 5879 5879 5880 5880 5881 5881 5881 5882 5882 5882 5882 5882 5882 5882 5882 5883 5883 5884 5884 5884 5885 5885 5886 5886 5887 5887 5887 5888 5888 5889 5890 5890
5868 5868 5869 5869 5870 5870 5871 5871 5872 5873 5874 5875 5875 5876 5877 5877 5878 5878 5878 5878 5878 5878 5879 5879 5879 5878 5879 5879 5880 5880 5880 5881 5881 5882 5882 5883 5883 5884 5884 5885 5885 5886 5887
5865 5865 5865 5865 5866 5867 5868 5868 5869 5869 5870 5871 5871 5872 5873 5873 5873 5873 5874 5874 5874 5875 5875 5875 5874 5874 5875 5875 5876 5876 5876 5876 5877 5878 5878 5879 5879 5880 5880 5881 5881 5883 5884
5862 5862 5862 5862 5863 5863 5864 5865 5865 5865 5866 5867 5867 5868 5868 5868 5868 5868 5869 5869 5869 5870 5870 5870 5870 5870 5870 5871 5871 5871 5872 5872 5872 5873 5874 5875 5875 5876 5876 5877 5877 5878 5879
5860 5858 5859 5859 5859 5859 5861 5861 5861 5861 5862 5863 5863 5863 5863 5863 5863 5864 5864 5864 5864 5865 5865 5865 5865 5865 5865 5866 5866 5866 5867 5867 5868 5868 5869 5869 5870 5871 5871 5872 5873 5874 5874
5857 5856 5855 5855 5855 5855 5856 5857 5857 5857 5857 5858 5858 5858 5858 5858 5858 5858 5858 5858 5859 5859 5859 5860 5860 5860 5860 5860 5861 5861 5862 5862 5863 5863 5864 5864 5865 5866 5866 5867 5868 5869 5870
5853 5853 5852 5852 5852 5852 5852 5853 5853 5853 5853 5854 5853 5853 5853 5853 5852 5852 5852 5853 5853 5853 5854 5854 5854 5854 5854 5854 5855 5856 5856 5857 5857 5858 5858 5859 5860 5861 5861 5862 5862 5864 5865
5850 5849 5849 5849 5848 5848 5848 5848 5849 5849 5849 5849 5849 5848 5847 5847 5847 5847 5847 5847 5847 5847 5847 5848 5848 5848 5848 5848 5849 5850 5850 5851 5851 5852 5852 5853 5854 5855 5855 5856 5857 5858 5859
5847 5846 5846 5845 5844 5844 5844 5844 5844 5844 5844 5844 5843 5843 5842 5842 5842 5841 5841 5841 5841 5841 5841 5841 5841 5841 5841 5842 5842 5843 5844 5844 5845 5845 5846 5846 5847 5848 5849 5850 5851 5852 5853
5842 5842 5842 5841 5840 5840 5839 5839 5839 5839 5839 5839 5838 5838 5837 5836 5836 5835 5834 5834 5834 5834 5834 5835 5834 5834 5835 5835 5835 5836 5837 5837 5838 5839 5839 5840 5841 5841 5842 5843 5845 5846 5847
5838 5838 5837 5836 5835 5835 5834 5833 5833 5833 5833 5833 5832 5831 5831 5830 5829 5828 5828 5828 5827 5827 5827 5827 5827 5827 5827 5827 5828 5828 5829 5830 5831 5831 5832 5833 5833 5834 5835 5836 5838 5839 5840
5835 5834 5832 5831 5830 5829 5829 5828 5828 5827 5827 5827 5826 5825 5824 5823 5822 5821 5821 5820 5820 5820 5819 5819 5819 5819 5820 5820 5820 5820 5821 5822 5823 5824 5824 5825 5826 5827 5828 5829 5830 5832 5833
5831 5830 5828 5827 5826 5825 5824 5823 5822 5821 5821 5820 5819 5818 5816 5815 5815 5814 5813 5813 5812 5812 5811 5811 5812 5812 5812 5812 5812 5812 5813 5814 5815 5816 5817 5818 5819 5820 5821 5822 5823 5824 5825
5827 5825 5824 5822 5821 5820 5818 5817 5816 5815 5814 5813 5812 5810 5809 5808 5807 5806 5805 5804 5804 5804 5803 5803 5803 5804 5804 5804 5804 5805 5806 5806 5807 5809 5810 5811 5811 5812 5813 5814 5815 5816 5818
5822 5820 5819 5817 5816 5814 5813 5811 5809 5808 5807 5805 5804 5802 5801 5800 5799 5798 5797 5796 5796 5796 5795 5795 5795 5795 5796 5796 5797 5797 5798 5799 5800 5801 5802 5803 5804 5805 5806 5807 5808 5809 5810
Wind_Speed
5 5 6 6 6 5 4 3 2 2 2 3 3 4 4 5 6 7 7 8 8 7 8 8 9 9 9 9 8 7 7 6 5 5 4 4 3 3 2 2 2 1 1
7 7 7 7 7 6 6 5 4 4 4 4 4 5 5 6 6 7 8 8 8 8 8 9 9 9 9 9 9 8 7 7 6 5 4 4 3 3 2 2 1 1 1
8 9 9 9 9 8 7 6 6 6 6 6 6 6 6 7 7 7 8 9 9 9 9 9 9 9 9 9 9 8 8 7 6 5 5 4 4 4 3 2 2 1 1
11 11 11 11 10 10 9 8 8 8 8 7 7 8 8 8 8 9 9 10 10 10 10 10 10 10 10 9 9 8 8 7 6 6 6 5 5 4 4 3 2 2 1
12 13 13 13 12 11 11 10 10 10 10 9 10 9 9 10 10 11 11 11 11 11 11 10 10 10 10 10 10 9 9 8 7 7 7 6 6 5 5 4 3 2 2
14 14 15 14 13 12 12 11 11 11 11 11 11 11 12 12 12 12 12 12 12 12 12 12 11 11 11 11 10 10 9 9 8 8 8 7 7 6 5 5 4 3 3
15 15 16 15 14 13 12 12 12 12 13 13 13 13 13 13 13 13 13 13 14 14 13 13 12 12 12 12 11 11 10 10 9 9 9 8 8 8 7 6 5 5 4
16 16 16 15 15 14 14 14 14 14 14 14 14 14 14 14 15 15 14 15 15 15 15 15 14 14 14 14 13 13 12 11 10 10 10 10 10 9 8 8 7 6 6
17 17 18 17 17 16 15 15 15 15 15 15 15 15 15 15 15 15 15 16 16 16 16 17 16 16 15 15 15 14 14 13 12 12 11 12 11 11 10 10 9 8 8
18 17 18 17 18 17 16 16 17 17 17 16 16 16 16 16 16 16 17 17 17 17 17 18 18 18 17 16 16 15 15 15 14 13 13 13 13 12 12 12 11 10 10
17 17 16 16 17 18 17 17 17 18 18 17 17 17 17 17 18 18 18 17 17 17 18 18 19 18 18 18 17 17 17 16 16 15 15 15 14 14 14 14 13 13 12
17 16 14 14 16 17 17 17 17 17 18 18 18 18 18 18 19 19 18 18 18 18 18 18 19 19 19 19 19 18 18 18 17 17 17 17 16 16 16 16 16 16 15
17 16 14 14 15 17 17 17 18 18 19 19 18 18 18 19 19 19 19 20 20 20 20 20 20 20 20 19 19 19 19 20 19 19 19 19 19 18 18 17 17 17 16
16 15 14 16 17 18 18 18 17 17 18 19 20 20 19 19 21 21 21 21 22 22 22 22 21 21 20 19 20 20 20 20 20 20 20 20 21 20 20 19 18 18 18
17 15 15 16 17 18 18 18 17 17 17 19 20 20 21 21 21 22 23 24 23 23 23 23 23 22 22 21 21 21 22 21 21 22 22 21 22 22 21 21 20 19 19
17 16 16 17 17 18 19 19 17 18 18 19 20 21 22 23 23 23 22 23 24 24 24 24 24 24 24 24 23 22 22 22 22 23 23 23 23 23 22 22 22 21 20
15 16 16 17 17 17 18 18 16 17 18 19 21 21 22 22 22 23 23 24 25 24 25 25 24 24 25 25 25 23 22 22 23 23 24 24 24 23 24 24 23 23 22
15 15 15 16 16 15 17 18 18 17 18 20 20 20 21 21 22 23 23 24 25 25 25 25 25 25 26 25 24 24 23 23 23 23 24 25 25 24 24 24 24 24 24
15 14 14 15 16 17 17 17 18 18 18 18 19 19 20 21 21 22 23 24 25 25 25 25 26 26 27 26 25 25 26 25 24 24 24 25 26 26 26 26 26 25 24
16 16 16 17 18 18 19 18 19 20 19 19 19 19 20 21 22 23 24 24 25 25 26 27 27 27 28 28 28 27 27 27 27 26 26 26 26 27 28 28 27 26 26
18 18 17 18 17 18 19 20 20 21 20 21 21 21 21 22 23 25 25 25 26 26 26 27 27 27 27 28 28 29 29 29 29 28 27 27 27 28 28 28 28 28 28
18 18 18 18 19 20 20 21 21 21 21 22 22 23 24 24 24 26 26 27 27 28 27 27 27 28 29 29 29 29 29 29 29 29 27 27 28 27 28 29 29 30 29
19 19 19 19 20 20 20 20 22 23 23 24 24 24 25 26 26 27 27 28 28 28 28 28 28 29 29 29 30 30 30 29 30 29 28 28 28 28 29 30 30 31 30
19 19 20 19 19 20 21 22 23 24 25 26 26 26 27 27 27 28 29 29 29 29 29 29 29 29 29 29 29 29 29 28 29 28 28 28 28 27 28 29 31 31 31
21 21 20 20 20 21 23 24 25 25 26 26 27 27 27 27 27 27 28 28 28 29 29 29 29 29 29 29 29 29 29 29 28 27 28 28 28 28 28 28 29 30 31
22 23 23 22 22 23 24 25 26 27 27 28 28 28 28 28 27 27 28 28 28 29 29 29 29 30 29 29 29 29 30 30 29 28 28 28 28 29 28 28 28 28 30
Wind_Direction
316 318 302 293 287 282 276 269 257 252 259 270 281 294 303 309 311 316 319 319 321 326 329 331 334 336 335 332 332 330 326 321 323 329 333 339 344 347 350 351 359 23 109
301 301 294 284 283 281 276 272 267 262 261 267 276 285 291 297 302 307 309 310 312 315 319 322 323 325 326 326 325 323 320 316 314 315 319 320 319 319 318 304 306 317 141
294 292 289 284 279 276 272 271 270 269 266 267 274 279 282 284 291 295 298 298 300 302 305 311 314 315 316 318 318 314 311 309 305 302 302 300 298 297 288 278 265 260 208
290 286 283 281 277 275 271 269 269 268 267 267 271 275 277 278 283 289 291 291 293 292 296 302 306 306 306 308 308 306 303 299 295 292 289 286 286 285 282 274 261 254 239
288 283 281 278 274 274 272 268 267 266 265 266 269 273 275 277 280 283 285 286 288 290 291 294 297 299 299 298 299 298 294 291 289 287 282 282 282 279 277 277 264 254 240
288 283 277 274 270 270 271 269 269 268 266 267 269 272 275 277 279 279 283 285 286 286 288 289 290 292 293 292 292 291 287 284 283 283 278 278 279 277 274 276 272 260 244
285 282 276 269 266 266 266 266 267 268 267 268 269 272 275 275 277 279 282 283 284 284 285 286 286 287 287 287 286 285 283 280 279 277 276 274 274 273 271 273 272 263 255
284 282 277 267 262 266 264 262 263 264 264 266 268 269 271 273 274 277 279 280 281 282 283 282 282 283 283 283 282 280 279 278 277 275 272 270 271 269 267 271 268 264 263
286 281 276 269 265 264 261 259 262 264 264 264 265 266 267 270 272 275 276 277 279 282 283 283 281 281 282 281 281 280 277 277 276 274 272 269 268 266 266 268 264 260 260
288 282 274 268 263 259 257 259 260 261 261 262 263 264 265 267 269 272 273 274 276 279 281 282 282 281 279 279 279 279 276 274 274 274 272 269 267 265 264 265 258 260 258
287 279 268 265 261 255 254 255 256 258 260 261 262 264 265 266 268 270 270 272 275 278 280 281 281 281 279 277 275 275 275 273 272 272 270 269 267 264 264 262 257 258 258
287 279 270 271 263 256 253 252 253 255 257 260 262 264 266 267 268 268 268 270 272 274 279 282 281 279 277 275 273 272 272 270 269 270 269 266 266 265 263 260 259 260 257
284 277 273 268 267 257 253 256 256 254 256 259 259 260 264 267 269 269 269 270 271 273 275 277 280 279 276 275 274 273 271 268 266 266 264 263 263 263 261 260 260 260 257
287 282 274 266 265 262 258 257 258 257 259 259 259 260 263 268 270 269 269 269 270 271 272 273 276 276 275 274 273 272 273 272 265 263 262 262 261 260 259 259 258 258 257
289 285 276 269 265 262 260 261 258 256 259 261 260 262 264 267 269 268 268 269 270 270 272 273 274 272 272 273 271 269 270 269 266 264 264 263 261 258 257 257 257 258 257
288 285 276 274 269 263 265 262 258 257 259 262 261 262 265 266 267 268 268 269 270 271 272 274 273 269 271 272 271 268 267 267 267 267 268 264 260 258 258 257 256 258 255
287 288 284 279 274 264 261 261 264 265 262 264 262 262 264 267 268 268 269 269 270 271 271 272 271 270 271 272 271 269 267 267 266 266 267 265 260 259 258 258 257 257 256
285 288 288 281 271 264 263 261 266 269 265 265 267 267 269 271 271 269 269 269 268 268 269 269 269 270 270 272 270 268 268 267 267 266 265 263 261 258 257 257 257 256 256
286 285 283 280 273 269 267 264 263 267 269 272 272 273 273 273 274 272 270 268 267 267 267 266 268 267 267 268 268 267 268 268 268 267 265 260 259 258 255 255 256 256 254
287 288 283 289 279 270 272 271 270 272 275 275 275 275 275 275 274 272 271 270 268 267 268 267 268 267 267 267 266 265 266 267 267 266 263 260 258 256 254 253 254 253 253
290 291 284 286 282 275 275 275 275 276 276 276 276 275 274 274 274 272 271 270 269 268 268 269 269 267 267 266 265 264 264 265 264 263 263 260 257 257 255 252 252 252 251
289 290 288 283 282 278 277 276 277 276 277 277 275 273 273 273 273 272 271 269 269 269 267 267 267 267 267 266 265 264 263 265 263 262 261 259 257 256 253 251 251 252 252
288 288 287 285 282 278 277 276 277 279 279 277 276 274 274 273 273 273 272 270 269 269 269 268 268 268 267 266 266 265 264 264 262 261 261 260 258 257 255 251 251 252 251
287 287 285 284 282 279 278 279 279 280 278 278 277 276 276 275 273 272 272 271 271 270 270 270 270 270 268 266 266 265 264 264 261 260 261 261 259 257 257 254 252 253 251
284 285 283 282 283 282 281 280 281 281 281 278 277 277 277 275 274 273 273 273 272 271 270 271 270 270 267 267 266 264 263 261 259 258 259 260 260 259 258 256 254 253 251
286 287 285 283 282 284 284 283 283 282 281 280 278 277 276 275 274 274 274 273 273 271 270 271 270 270 268 267 266 265 263 261 259 258 258 258 259 258 258 258 257 257 254